Jersey Airport

Airport
ICAO code: 
EGJJ
IATA Code: 
JER
Summary
ICAO Region: 
EUR
Territory: 
Location: 
Saint Peter, Jersey
Serving: 
St Hellier
Elevation: 
277 ft
Coordinates: 
Aerial View: 
49° 12' 25.937" N, 2° 11' 40.99" W
Metar
Observation
EGJJ 260720Z 27015KT 4000 -DZ BR SCT003 BKN005 13/12 Q1025
Station
Jersey Airport
Date/Time
2022-05-26 07:20:00
Wind direction
270°
Wind speed
15 kts
Lowest cloud amount
scattered clouds
Temperature
13°C
Dew point
12°C
Humidity
93%
QNH
1025 hPa
Weather condition
n/a

Description

The only airport on the Channel Island of Jersey, a self-governing British Crown Dependency.

Climatology

Temperate Marine climate/Oceanic climate (Köppen climate classification Cfb). Moderately cool summer and comparatively warm winter with a temperature range of only 14°C. Prevailing south-westerly winds from the Atlantic Ocean.

Runways

Designator Length Width Surface Rops
9/27 1706 46 ASP Yes/Yes
Airport map: 
Aerial View: 

SKYbrary Partners:

Safety knowledge contributed by: